| time (UTC) | temp F | wind direction | speed MPH | gust MPH | rain 1hr in | rain 24hr in | rain mn in | humidity % | barometer mb |
| 20260906120033 | 0 | 0 | 0.0 | 0.0 | 0.00 | 0.00 | 0.00 | 100 | |
| 20260906115955 | 0 | 0 | 0.0 | 0.0 | 0.00 | 0.00 | 0.00 | 100 | |
| 20260906115603 | 90 | 112 | 9.0 | 13.0 | 0.00 | 0.00 | 0.00 | 4 | 1016.0 |
| 20260906115152 | 90 | 112 | 9.0 | 13.0 | 0.00 | 0.00 | 0.00 | 4 | 1015.9 |
| 20260906115104 | 90 | 112 | 9.0 | 13.0 | 0.00 | 0.00 | 0.00 | 4 | 1015.9 |
| 20260906114654 | 90 | 112 | 9.0 | 13.0 | 0.00 | 0.00 | 0.00 | 4 | 1015.9 |
| 20260906114352 | 0 | 0 | 0.0 | 0.0 | 0.00 | 0.00 | 0.00 | 100 | |
| 20260906114211 | 0 | 0 | 0.0 | 0.0 | 0.00 | 0.00 | 0.00 | 100 | |
| 20260906113714 | 0 | 0 | 0.0 | 0.0 | 0.00 | 0.00 | 0.00 | 100 | |
| 20260906113358 | 89 | 112 | 9.0 | 13.0 | 0.00 | 0.00 | 0.00 | 5 | 1016.0 |
| 20260906113231 | 89 | 112 | 9.0 | 13.0 | 0.00 | 0.00 | 0.00 | 5 | 1016.0 |
| 20260906112754 | 89 | 112 | 9.0 | 13.0 | 0.00 | 0.00 | 0.00 | 5 | 1016.1 |
| 20260906112508 | 89 | 90 | 9.0 | 11.0 | 0.00 | 0.00 | 0.00 | 5 | 1016.1 |
| 20260906112332 | 89 | 90 | 9.0 | 11.0 | 0.00 | 0.00 | 0.00 | 5 | 1016.0 |
| 20260906111904 | 89 | 90 | 9.0 | 11.0 | 0.00 | 0.00 | 0.00 | 5 | 1016.2 |
| 20260906111513 | 89 | 67 | 6.0 | 9.0 | 0.00 | 0.00 | 0.00 | 5 | 1016.3 |
| 20260906111418 | 89 | 67 | 6.0 | 9.0 | 0.00 | 0.00 | 0.00 | 5 | 1016.2 |
| 20260906111013 | 0 | 0 | 0.0 | 0.0 | 0.00 | 0.00 | 0.00 | 100 | |
| 20260906110611 | 0 | 0 | 0.0 | 0.0 | 0.00 | 0.00 | 0.00 | 100 | |
| 20260906110529 | 0 | 0 | 0.0 | 0.0 | 0.00 | 0.00 | 0.00 | 100 | |
| 20260906110129 | 0 | 0 | 0.0 | 0.0 | 0.00 | 0.00 | 0.00 | 100 | |
| 20260906105712 | 0 | 0 | 0.0 | 0.0 | 0.00 | 0.00 | 0.00 | 100 | |
| 20260906105636 | 0 | 0 | 0.0 | 0.0 | 0.00 | 0.00 | 0.00 | 100 | |
| 20260906105252 | 0 | 0 | 0.0 | 0.0 | 0.00 | 0.00 | 0.00 | 100 | |
| 20260906104824 | 91 | 90 | 5.0 | 8.0 | 0.00 | 0.00 | 0.00 | 5 | 1016.4 |
| 20260906104753 | 91 | 90 | 5.0 | 8.0 | 0.00 | 0.00 | 0.00 | 5 | 1016.4 |
| 20260906104342 | 91 | 90 | 5.0 | 8.0 | 0.00 | 0.00 | 0.00 | 5 | 1016.5 |
| 20260906103846 | 91 | 67 | 4.0 | 6.0 | 0.00 | 0.00 | 0.00 | 5 | 1016.5 |
| 20260906103443 | 91 | 67 | 4.0 | 6.0 | 0.00 | 0.00 | 0.00 | 5 | 1016.5 |
| 20260906103028 | 91 | 67 | 4.0 | 6.0 | 0.00 | 0.00 | 0.00 | 5 | 1016.6 |
| 20260906103013 | 0 | 0 | 0.0 | 0.0 | 0.00 | 0.00 | 0.00 | 100 | |
| 20260906102527 | 0 | 0 | 0.0 | 0.0 | 0.00 | 0.00 | 0.00 | 100 | |
| 20260906102027 | 0 | 0 | 0.0 | 0.0 | 0.00 | 0.00 | 0.00 | 100 | |
| 20260906101547 | 0 | 0 | 0.0 | 0.0 | 0.00 | 0.00 | 0.00 | 100 | |
| 20260906101137 | 0 | 0 | 0.0 | 0.0 | 0.00 | 0.00 | 0.00 | 100 | |
| 20260906101047 | 92 | 67 | 1.0 | 2.0 | 0.00 | 0.00 | 0.00 | 4 | 1016.8 |
| 20260906100714 | 92 | 67 | 1.0 | 2.0 | 0.00 | 0.00 | 0.00 | 4 | 1016.9 |
| 20260906100231 | 92 | 67 | 1.0 | 2.0 | 0.00 | 0.00 | 0.00 | 4 | 1016.8 |
| 20260906095751 | 92 | 112 | 0.0 | 2.0 | 0.00 | 0.00 | 0.00 | 4 | 1016.9 |
| 20260906095351 | 91 | 112 | 2.0 | 3.0 | 0.00 | 0.00 | 0.00 | 4 | 1016.9 |
| 20260906095309 | 91 | 112 | 2.0 | 3.0 | 0.00 | 0.00 | 0.00 | 4 | 1016.9 |
| 20260906094829 | 90 | 90 | 3.0 | 3.0 | 0.00 | 0.00 | 0.00 | 4 | 1016.9 |
| 20260906094356 | 90 | 90 | 3.0 | 3.0 | 0.00 | 0.00 | 0.00 | 4 | 1016.9 |
| 20260906094339 | 90 | 90 | 3.0 | 3.0 | 0.00 | 0.00 | 0.00 | 4 | 1017.0 |
| 20260906093932 | 0 | 0 | 0.0 | 0.0 | 0.00 | 0.00 | 0.00 | 100 | |
| 20260906093523 | 0 | 0 | 0.0 | 0.0 | 0.00 | 0.00 | 0.00 | 100 | |
| 20260906093107 | 89 | 0 | 0.0 | 0.0 | 0.00 | 0.00 | 0.00 | 4 | 1016.9 |
| 20260906092655 | 89 | 0 | 0.0 | 0.0 | 0.00 | 0.00 | 0.00 | 4 | 1016.9 |
| 20260906092341 | 89 | 0 | 0.0 | 0.0 | 0.00 | 0.00 | 0.00 | 4 | 1017.0 |
| 20260906092140 | 89 | 0 | 0.0 | 0.0 | 0.00 | 0.00 | 0.00 | 4 | 1016.9 |
| 20260906091904 | 89 | 0 | 0.0 | 0.0 | 0.00 | 0.00 | 0.00 | 4 | 1016.7 |
| 20260906091415 | 87 | 0 | 0.0 | 1.0 | 0.00 | 0.00 | 0.00 | 5 | 1016.8 |
| 20260906091255 | 87 | 0 | 0.0 | 1.0 | 0.00 | 0.00 | 0.00 | 5 | 1016.8 |
| 20260906090945 | 87 | 0 | 0.0 | 1.0 | 0.00 | 0.00 | 0.00 | 5 | 1016.8 |
| 20260906090452 | 88 | 0 | 0.0 | 1.0 | 0.00 | 0.00 | 0.00 | 5 | 1016.9 |
| 20260906090023 | 87 | 0 | 0.0 | 0.0 | 0.00 | 0.00 | 0.00 | 5 | 1016.9 |
| 20260906085616 | 0 | 0 | 0.0 | 0.0 | 0.00 | 0.00 | 0.00 | 100 | |
| 20260906085428 | 0 | 0 | 0.0 | 0.0 | 0.00 | 0.00 | 0.00 | 100 | |
| 20260906085237 | 0 | 0 | 0.0 | 0.0 | 0.00 | 0.00 | 0.00 | 100 | |
| 20260906084813 | 0 | 0 | 0.0 | 0.0 | 0.00 | 0.00 | 0.00 | 100 | |
| 20260906084623 | 0 | 0 | 0.0 | 0.0 | 0.00 | 0.00 | 0.00 | 100 | |
| 20260906084412 | 0 | 0 | 0.0 | 0.0 | 0.00 | 0.00 | 0.00 | 100 | |
| 20260906083939 | 0 | 0 | 0.0 | 0.0 | 0.00 | 0.00 | 0.00 | 100 | |
| 20260906083814 | 0 | 0 | 0.0 | 0.0 | 0.00 | 0.00 | 0.00 | 100 | |
| 20260906083515 | 0 | 0 | 0.0 | 0.0 | 0.00 | 0.00 | 0.00 | 100 | |
| 20260906083034 | 0 | 0 | 0.0 | 0.0 | 0.00 | 0.00 | 0.00 | 100 | |
| 20260906082910 | 84 | 315 | 4.0 | 6.0 | 0.00 | 0.00 | 0.00 | 5 | 1016.9 |
| 20260906082634 | 84 | 315 | 4.0 | 6.0 | 0.00 | 0.00 | 0.00 | 5 | 1016.8 |
| 20260906082217 | 84 | 315 | 4.0 | 6.0 | 0.00 | 0.00 | 0.00 | 5 | 1016.9 |
| 20260906082034 | 84 | 315 | 4.0 | 6.0 | 0.00 | 0.00 | 0.00 | 5 | 1016.8 |
| 20260906081811 | 0 | 0 | 0.0 | 0.0 | 0.00 | 0.00 | 0.00 | 100 | |
| 20260906081348 | 0 | 0 | 0.0 | 0.0 | 0.00 | 0.00 | 0.00 | 100 | |
| 20260906081218 | 0 | 0 | 0.0 | 0.0 | 0.00 | 0.00 | 0.00 | 100 | |
| 20260906080907 | 0 | 0 | 0.0 | 0.0 | 0.00 | 0.00 | 0.00 | 100 | |
| 20260906080412 | 0 | 0 | 0.0 | 0.0 | 0.00 | 0.00 | 0.00 | 100 | |
| 20260906080355 | 0 | 0 | 0.0 | 0.0 | 0.00 | 0.00 | 0.00 | 100 | |
| 20260906075930 | 0 | 0 | 0.0 | 0.0 | 0.00 | 0.00 | 0.00 | 100 | |
| 20260906075543 | 0 | 0 | 0.0 | 0.0 | 0.00 | 0.00 | 0.00 | 100 | |
| 20260906075502 | 0 | 0 | 0.0 | 0.0 | 0.00 | 0.00 | 0.00 | 100 | |
| 20260906075039 | 0 | 0 | 0.0 | 0.0 | 0.00 | 0.00 | 0.00 | 100 | |
| 20260906074607 | 80 | 270 | 1.0 | 2.0 | 0.00 | 0.00 | 0.00 | 7 | 1016.8 |
| 20260906074550 | 80 | 270 | 1.0 | 2.0 | 0.00 | 0.00 | 0.00 | 7 | 1016.8 |
| 20260906074120 | 80 | 270 | 1.0 | 2.0 | 0.00 | 0.00 | 0.00 | 7 | 1016.8 |
| 20260906073737 | 79 | 270 | 2.0 | 2.0 | 0.00 | 0.00 | 0.00 | 7 | 1016.8 |
| 20260906073702 | 79 | 270 | 2.0 | 2.0 | 0.00 | 0.00 | 0.00 | 7 | 1016.8 |
| 20260906073237 | 79 | 270 | 1.0 | 2.0 | 0.00 | 0.00 | 0.00 | 7 | 1016.8 |
| 20260906072742 | 0 | 0 | 0.0 | 0.0 | 0.00 | 0.00 | 0.00 | 100 | |
| 20260906072446 | 0 | 0 | 0.0 | 0.0 | 0.00 | 0.00 | 0.00 | 100 | |
| 20260906072340 | 0 | 0 | 0.0 | 0.0 | 0.00 | 0.00 | 0.00 | 100 | |
| 20260906071848 | 0 | 0 | 0.0 | 0.0 | 0.00 | 0.00 | 0.00 | 100 | |
| 20260906071510 | 0 | 0 | 0.0 | 0.0 | 0.00 | 0.00 | 0.00 | 100 | |
| 20260906071430 | 0 | 0 | 0.0 | 0.0 | 0.00 | 0.00 | 0.00 | 100 | |
| 20260906071025 | 0 | 0 | 0.0 | 0.0 | 0.00 | 0.00 | 0.00 | 100 | |
| 20260906070639 | 0 | 0 | 0.0 | 0.0 | 0.00 | 0.00 | 0.00 | 100 | |
| 20260906070604 | 0 | 0 | 0.0 | 0.0 | 0.00 | 0.00 | 0.00 | 100 | |
| 20260906070140 | 0 | 0 | 0.0 | 0.0 | 0.00 | 0.00 | 0.00 | 100 | |
| 20260906065645 | 0 | 0 | 0.0 | 0.0 | 0.00 | 0.00 | 0.00 | 100 | |
| 20260906065414 | 0 | 0 | 0.0 | 0.0 | 0.00 | 0.00 | 0.00 | 100 | |
| 20260906065242 | 0 | 0 | 0.0 | 0.0 | 0.00 | 0.00 | 0.00 | 100 | |
| 20260906064958 | 0 | 0 | 0.0 | 0.0 | 0.00 | 0.00 | 0.00 | 100 | |
| 20260906064521 | 0 | 0 | 0.0 | 0.0 | 0.00 | 0.00 | 0.00 | 100 | |
| 20260906064348 | 0 | 0 | 0.0 | 0.0 | 0.00 | 0.00 | 0.00 | 100 | |
| 20260906064042 | 0 | 0 | 0.0 | 0.0 | 0.00 | 0.00 | 0.00 | 100 | |
| 20260906063554 | 0 | 0 | 0.0 | 0.0 | 0.00 | 0.00 | 0.00 | 100 | |
| 20260906063520 | 0 | 0 | 0.0 | 0.0 | 0.00 | 0.00 | 0.00 | 100 | |
| 20260906063106 | 0 | 0 | 0.0 | 0.0 | 0.00 | 0.00 | 0.00 | 100 | |
| 20260906062653 | 0 | 0 | 0.0 | 0.0 | 0.00 | 0.00 | 0.00 | 100 | |
| 20260906062434 | 0 | 0 | 0.0 | 0.0 | 0.00 | 0.00 | 0.00 | 100 | |
| 20260906061957 | 0 | 0 | 0.0 | 0.0 | 0.00 | 0.00 | 0.00 | 100 | |
| 20260906061508 | 0 | 0 | 0.0 | 0.0 | 0.00 | 0.00 | 0.00 | 100 | |
| 20260906061021 | 0 | 0 | 0.0 | 0.0 | 0.00 | 0.00 | 0.00 | 100 | |
| 20260906060636 | 0 | 0 | 0.0 | 0.0 | 0.00 | 0.00 | 0.00 | 100 | |
| 20260906060604 | 0 | 0 | 0.0 | 0.0 | 0.00 | 0.00 | 0.00 | 100 | |
| 20260906060139 | 0 | 0 | 0.0 | 0.0 | 0.00 | 0.00 | 0.00 | 100 | |
| 20260906055644 | 0 | 0 | 0.0 | 0.0 | 0.00 | 0.00 | 0.00 | 100 | |
| 20260906055505 | 0 | 0 | 0.0 | 0.0 | 0.00 | 0.00 | 0.00 | 100 | |
| 20260906055009 | 0 | 0 | 0.0 | 0.0 | 0.00 | 0.00 | 0.00 | 100 | |
| 20260906054722 | 0 | 0 | 0.0 | 0.0 | 0.00 | 0.00 | 0.00 | 100 | |
| 20260906054552 | 0 | 0 | 0.0 | 0.0 | 0.00 | 0.00 | 0.00 | 100 | |
| 20260906054107 | 0 | 0 | 0.0 | 0.0 | 0.00 | 0.00 | 0.00 | 100 | |
| 20260906053722 | 0 | 0 | 0.0 | 0.0 | 0.00 | 0.00 | 0.00 | 100 | |
| 20260906053651 | 0 | 0 | 0.0 | 0.0 | 0.00 | 0.00 | 0.00 | 100 | |
| 20260906053226 | 0 | 0 | 0.0 | 0.0 | 0.00 | 0.00 | 0.00 | 100 | |
| 20260906052730 | 0 | 0 | 0.0 | 0.0 | 0.00 | 0.00 | 0.00 | 100 | |
| 20260906052439 | 0 | 0 | 0.0 | 0.0 | 0.00 | 0.00 | 0.00 | 100 | |
| 20260906052244 | 0 | 0 | 0.0 | 0.0 | 0.00 | 0.00 | 0.00 | 100 | |
| 20260906052004 | 0 | 0 | 0.0 | 0.0 | 0.00 | 0.00 | 0.00 | 100 | |
| 20260906051519 | 0 | 0 | 0.0 | 0.0 | 0.00 | 0.00 | 0.00 | 100 | |
| 20260906051349 | 0 | 0 | 0.0 | 0.0 | 0.00 | 0.00 | 0.00 | 100 | |
| 20260906051044 | 0 | 0 | 0.0 | 0.0 | 0.00 | 0.00 | 0.00 | 100 | |
| 20260906050555 | 0 | 0 | 0.0 | 0.0 | 0.00 | 0.00 | 0.00 | 100 | |
| 20260906050522 | 0 | 0 | 0.0 | 0.0 | 0.00 | 0.00 | 0.00 | 100 | |
| 20260906050107 | 0 | 0 | 0.0 | 0.0 | 0.00 | 0.00 | 0.00 | 100 | |
| 20260906045652 | 0 | 0 | 0.0 | 0.0 | 0.00 | 0.00 | 0.00 | 100 | |
| 20260906045307 | 0 | 0 | 0.0 | 0.0 | 0.00 | 0.00 | 0.00 | 100 | |
| 20260906044810 | 0 | 0 | 0.0 | 0.0 | 0.00 | 0.00 | 0.00 | 100 | |
| 20260906044407 | 0 | 0 | 0.0 | 0.0 | 0.00 | 0.00 | 0.00 | 100 | |
| 20260906044004 | 0 | 0 | 0.0 | 0.0 | 0.00 | 0.00 | 0.00 | 100 | |
| 20260906043604 | 0 | 0 | 0.0 | 0.0 | 0.00 | 0.00 | 0.00 | 100 | |
| 20260906043557 | 0 | 0 | 0.0 | 0.0 | 0.00 | 0.00 | 0.00 | 100 | |
| 20260906043139 | 0 | 0 | 0.0 | 0.0 | 0.00 | 0.00 | 0.00 | 100 | |
| 20260906042730 | 0 | 0 | 0.0 | 0.0 | 0.00 | 0.00 | 0.00 | 100 | |
| 20260906042307 | 0 | 0 | 0.0 | 0.0 | 0.00 | 0.00 | 0.00 | 100 | |
| 20260906041924 | 0 | 0 | 0.0 | 0.0 | 0.00 | 0.00 | 0.00 | 100 | |
| 20260906041503 | 0 | 0 | 0.0 | 0.0 | 0.00 | 0.00 | 0.00 | 100 | |
| 20260906041427 | 0 | 0 | 0.0 | 0.0 | 0.00 | 0.00 | 0.00 | 100 | |
| 20260906041034 | 0 | 0 | 0.0 | 0.0 | 0.00 | 0.00 | 0.00 | 100 | |
| 20260906040539 | 0 | 0 | 0.0 | 0.0 | 0.00 | 0.00 | 0.00 | 100 | |
| 20260906040112 | 0 | 0 | 0.0 | 0.0 | 0.00 | 0.00 | 0.00 | 100 | |
| 20260906035649 | 0 | 0 | 0.0 | 0.0 | 0.00 | 0.00 | 0.00 | 100 | |
| 20260906035647 | 0 | 0 | 0.0 | 0.0 | 0.00 | 0.00 | 0.00 | 100 | |
| 20260906035550 | 0 | 0 | 0.0 | 0.0 | 0.00 | 0.00 | 0.00 | 100 | |
| 20260906035440 | 0 | 0 | 0.0 | 0.0 | 0.00 | 0.00 | 0.00 | 100 | |
| 20260906035038 | 0 | 0 | 0.0 | 0.0 | 0.00 | 0.00 | 0.00 | 100 | |
| 20260906034629 | 0 | 0 | 0.0 | 0.0 | 0.00 | 0.00 | 0.00 | 100 | |
| 20260906034557 | 0 | 0 | 0.0 | 0.0 | 0.00 | 0.00 | 0.00 | 100 | |
| 20260906034131 | 0 | 0 | 0.0 | 0.0 | 0.00 | 0.00 | 0.00 | 100 | |
| 20260906033715 | 0 | 0 | 0.0 | 0.0 | 0.00 | 0.00 | 0.00 | 100 | |
| 20260906033241 | 0 | 0 | 0.0 | 0.0 | 0.00 | 0.00 | 0.00 | 100 | |
| 20260906032745 | 0 | 0 | 0.0 | 0.0 | 0.00 | 0.00 | 0.00 | 100 | |
| 20260906032436 | 0 | 0 | 0.0 | 0.0 | 0.00 | 0.00 | 0.00 | 100 | |
| 20260906032406 | 0 | 0 | 0.0 | 0.0 | 0.00 | 0.00 | 0.00 | 100 | |
| 20260906031951 | 0 | 0 | 0.0 | 0.0 | 0.00 | 0.00 | 0.00 | 100 | |
| 20260906031843 | 0 | 0 | 0.0 | 0.0 | 0.00 | 0.00 | 0.00 | 100 | |
| 20260906031515 | 0 | 0 | 0.0 | 0.0 | 0.00 | 0.00 | 0.00 | 100 | |
| 20260906031028 | 0 | 0 | 0.0 | 0.0 | 0.00 | 0.00 | 0.00 | 100 | |
| 20260906030648 | 0 | 0 | 0.0 | 0.0 | 0.00 | 0.00 | 0.00 | 100 | |
| 20260906030612 | 0 | 0 | 0.0 | 0.0 | 0.00 | 0.00 | 0.00 | 100 | |
| 20260906030146 | 0 | 0 | 0.0 | 0.0 | 0.00 | 0.00 | 0.00 | 100 | |
| 20260906025652 | 0 | 0 | 0.0 | 0.0 | 0.00 | 0.00 | 0.00 | 100 | |
| 20260906025435 | 0 | 0 | 0.0 | 0.0 | 0.00 | 0.00 | 0.00 | 100 | |
| 20260906025322 | 0 | 0 | 0.0 | 0.0 | 0.00 | 0.00 | 0.00 | 100 | |
| 20260906025028 | 0 | 0 | 0.0 | 0.0 | 0.00 | 0.00 | 0.00 | 100 | |
| 20260906024536 | 0 | 0 | 0.0 | 0.0 | 0.00 | 0.00 | 0.00 | 100 | |
| 20260906024457 | 0 | 0 | 0.0 | 0.0 | 0.00 | 0.00 | 0.00 | 100 | |
| 20260906024044 | 0 | 0 | 0.0 | 0.0 | 0.00 | 0.00 | 0.00 | 100 | |
| 20260906023610 | 0 | 0 | 0.0 | 0.0 | 0.00 | 0.00 | 0.00 | 100 | |
| 20260906023552 | 0 | 0 | 0.0 | 0.0 | 0.00 | 0.00 | 0.00 | 100 | |
| 20260906023141 | 0 | 0 | 0.0 | 0.0 | 0.00 | 0.00 | 0.00 | 100 | |
| 20260906022735 | 0 | 0 | 0.0 | 0.0 | 0.00 | 0.00 | 0.00 | 100 | |
| 20260906022316 | 0 | 0 | 0.0 | 0.0 | 0.00 | 0.00 | 0.00 | 100 | |
| 20260906021908 | 0 | 0 | 0.0 | 0.0 | 0.00 | 0.00 | 0.00 | 100 | |
| 20260906021432 | 0 | 0 | 0.0 | 0.0 | 0.00 | 0.00 | 0.00 | 100 | |
| 20260906021000 | 0 | 0 | 0.0 | 0.0 | 0.00 | 0.00 | 0.00 | 100 | |
| 20260906020559 | 0 | 0 | 0.0 | 0.0 | 0.00 | 0.00 | 0.00 | 100 | |
| 20260906020542 | 0 | 0 | 0.0 | 0.0 | 0.00 | 0.00 | 0.00 | 100 | |
| 20260906020116 | 0 | 0 | 0.0 | 0.0 | 0.00 | 0.00 | 0.00 | 100 | |
| 20260906015651 | 0 | 0 | 0.0 | 0.0 | 0.00 | 0.00 | 0.00 | 100 | |
| 20260906015350 | 0 | 0 | 0.0 | 0.0 | 0.00 | 0.00 | 0.00 | 100 | |
| 20260906014938 | 0 | 0 | 0.0 | 0.0 | 0.00 | 0.00 | 0.00 | 100 | |
| 20260906014524 | 0 | 0 | 0.0 | 0.0 | 0.00 | 0.00 | 0.00 | 100 | |
| 20260906014054 | 0 | 0 | 0.0 | 0.0 | 0.00 | 0.00 | 0.00 | 100 | |
| 20260906013635 | 0 | 0 | 0.0 | 0.0 | 0.00 | 0.00 | 0.00 | 100 | |
| 20260906013209 | 0 | 0 | 0.0 | 0.0 | 0.00 | 0.00 | 0.00 | 100 | |
| 20260906012745 | 0 | 0 | 0.0 | 0.0 | 0.00 | 0.00 | 0.00 | 100 | |
| 20260906012436 | 0 | 0 | 0.0 | 0.0 | 0.00 | 0.00 | 0.00 | 100 | |
| 20260906012020 | 0 | 0 | 0.0 | 0.0 | 0.00 | 0.00 | 0.00 | 100 | |
| 20260906011536 | 0 | 0 | 0.0 | 0.0 | 0.00 | 0.00 | 0.00 | 100 | |
| 20260906011045 | 0 | 0 | 0.0 | 0.0 | 0.00 | 0.00 | 0.00 | 100 | |
| 20260906010621 | 0 | 0 | 0.0 | 0.0 | 0.00 | 0.00 | 0.00 | 100 | |
| 20260906010146 | 0 | 0 | 0.0 | 0.0 | 0.00 | 0.00 | 0.00 | 100 | |
| 20260906005650 | 0 | 0 | 0.0 | 0.0 | 0.00 | 0.00 | 0.00 | 100 | |
| 20260906005108 | 0 | 0 | 0.0 | 0.0 | 0.00 | 0.00 | 0.00 | 100 | |
| 20260906004620 | 0 | 0 | 0.0 | 0.0 | 0.00 | 0.00 | 0.00 | 100 | |
| 20260906004202 | 0 | 0 | 0.0 | 0.0 | 0.00 | 0.00 | 0.00 | 100 | |
| 20260906003702 | 0 | 0 | 0.0 | 0.0 | 0.00 | 0.00 | 0.00 | 100 | |
| 20260906003212 | 0 | 0 | 0.0 | 0.0 | 0.00 | 0.00 | 0.00 | 100 | |
| 20260906002800 | 0 | 0 | 0.0 | 0.0 | 0.00 | 0.00 | 0.00 | 100 | |
| 20260906002503 | 0 | 0 | 0.0 | 0.0 | 0.00 | 0.00 | 0.00 | 100 | |
| 20260906002046 | 0 | 0 | 0.0 | 0.0 | 0.00 | 0.00 | 0.00 | 100 | |
| 20260906001534 | 0 | 0 | 0.0 | 0.0 | 0.00 | 0.00 | 0.00 | 100 | |
| 20260906001056 | 0 | 0 | 0.0 | 0.0 | 0.00 | 0.00 | 0.00 | 100 | |
| 20260906000605 | 0 | 0 | 0.0 | 0.0 | 0.00 | 0.00 | 0.00 | 100 | |
| 20260906000534 | 0 | 0 | 0.0 | 0.0 | 0.00 | 0.00 | 0.00 | 100 | |
| 20260906000117 | 0 | 0 | 0.0 | 0.0 | 0.00 | 0.00 | 0.00 | 100 | |
| 20260905235702 | 0 | 0 | 0.0 | 0.0 | 0.00 | 0.00 | 0.00 | 100 | |
| 20260905235400 | 0 | 0 | 0.0 | 0.0 | 0.00 | 0.00 | 0.00 | 100 | |
| 20260905235251 | 0 | 0 | 0.0 | 0.0 | 0.00 | 0.00 | 0.00 | 100 | |
| 20260905234923 | 0 | 0 | 0.0 | 0.0 | 0.00 | 0.00 | 0.00 | 100 | |
| 20260905234415 | 0 | 0 | 0.0 | 0.0 | 0.00 | 0.00 | 0.00 | 100 | |
| 20260905234024 | 0 | 0 | 0.0 | 0.0 | 0.00 | 0.00 | 0.00 | 100 | |
| 20260905233527 | 0 | 0 | 0.0 | 0.0 | 0.00 | 0.00 | 0.00 | 100 | |
| 20260905233100 | 0 | 0 | 0.0 | 0.0 | 0.00 | 0.00 | 0.00 | 100 | |
| 20260905232635 | 0 | 0 | 0.0 | 0.0 | 0.00 | 0.00 | 0.00 | 100 | |
| 20260905232459 | 0 | 0 | 0.0 | 0.0 | 0.00 | 0.00 | 0.00 | 100 | |
| 20260905232306 | 0 | 0 | 0.0 | 0.0 | 0.00 | 0.00 | 0.00 | 100 | |
| 20260905232017 | 0 | 0 | 0.0 | 0.0 | 0.00 | 0.00 | 0.00 | 100 | |
| 20260905231526 | 0 | 0 | 0.0 | 0.0 | 0.00 | 0.00 | 0.00 | 100 | |
| 20260905231441 | 0 | 0 | 0.0 | 0.0 | 0.00 | 0.00 | 0.00 | 100 | |
| 20260905231108 | 0 | 0 | 0.0 | 0.0 | 0.00 | 0.00 | 0.00 | 100 | |
| 20260905230553 | 0 | 0 | 0.0 | 0.0 | 0.00 | 0.00 | 0.00 | 100 | |
| 20260905230128 | 0 | 0 | 0.0 | 0.0 | 0.00 | 0.00 | 0.00 | 100 | |
| 20260905225702 | 0 | 0 | 0.0 | 0.0 | 0.00 | 0.00 | 0.00 | 100 | |
| 20260905225407 | 0 | 0 | 0.0 | 0.0 | 0.00 | 0.00 | 0.00 | 100 | |
| 20260905224919 | 0 | 0 | 0.0 | 0.0 | 0.00 | 0.00 | 0.00 | 100 | |
| 20260905224431 | 0 | 0 | 0.0 | 0.0 | 0.00 | 0.00 | 0.00 | 100 | |
| 20260905224031 | 0 | 0 | 0.0 | 0.0 | 0.00 | 0.00 | 0.00 | 100 | |
| 20260905223512 | 0 | 0 | 0.0 | 0.0 | 0.00 | 0.00 | 0.00 | 100 | |
| 20260905223104 | 0 | 0 | 0.0 | 0.0 | 0.00 | 0.00 | 0.00 | 100 | |
| 20260905222656 | 0 | 0 | 0.0 | 0.0 | 0.00 | 0.00 | 0.00 | 100 | |
| 20260905222328 | 0 | 0 | 0.0 | 0.0 | 0.00 | 0.00 | 0.00 | 100 | |
| 20260905221852 | 0 | 0 | 0.0 | 0.0 | 0.00 | 0.00 | 0.00 | 100 | |
| 20260905221428 | 0 | 0 | 0.0 | 0.0 | 0.00 | 0.00 | 0.00 | 100 | |
| 20260905221001 | 0 | 0 | 0.0 | 0.0 | 0.00 | 0.00 | 0.00 | 100 | |
| 20260905220508 | 0 | 0 | 0.0 | 0.0 | 0.00 | 0.00 | 0.00 | 100 | |
| 20260905220059 | 0 | 0 | 0.0 | 0.0 | 0.00 | 0.00 | 0.00 | 100 | |
| 20260905215652 | 0 | 0 | 0.0 | 0.0 | 0.00 | 0.00 | 0.00 | 100 | |
| 20260905215507 | 0 | 0 | 0.0 | 0.0 | 0.00 | 0.00 | 0.00 | 100 | |
| 20260905215029 | 0 | 0 | 0.0 | 0.0 | 0.00 | 0.00 | 0.00 | 100 | |
| 20260905214558 | 0 | 0 | 0.0 | 0.0 | 0.00 | 0.00 | 0.00 | 100 | |
| 20260905214146 | 0 | 0 | 0.0 | 0.0 | 0.00 | 0.00 | 0.00 | 100 | |
| 20260905214031 | 0 | 0 | 0.0 | 0.0 | 0.00 | 0.00 | 0.00 | 100 | |
| 20260905213740 | 0 | 0 | 0.0 | 0.0 | 0.00 | 0.00 | 0.00 | 100 | |
| 20260905213323 | 0 | 0 | 0.0 | 0.0 | 0.00 | 0.00 | 0.00 | 100 | |
| 20260905212831 | 0 | 0 | 0.0 | 0.0 | 0.00 | 0.00 | 0.00 | 100 | |
| 20260905212347 | 77 | 292 | 3.0 | 6.0 | 0.00 | 0.00 | 0.00 | 8 | 1017.0 |
| 20260905212226 | 77 | 292 | 3.0 | 6.0 | 0.00 | 0.00 | 0.00 | 8 | 1017.0 |
| 20260905211917 | 77 | 292 | 3.0 | 6.0 | 0.00 | 0.00 | 0.00 | 8 | 1017.0 |
| 20260905211424 | 0 | 0 | 0.0 | 0.0 | 0.00 | 0.00 | 0.00 | 100 | |
| 20260905211023 | 0 | 0 | 0.0 | 0.0 | 0.00 | 0.00 | 0.00 | 100 | |
| 20260905210510 | 0 | 0 | 0.0 | 0.0 | 0.00 | 0.00 | 0.00 | 100 | |
| 20260905210059 | 0 | 0 | 0.0 | 0.0 | 0.00 | 0.00 | 0.00 | 100 | |
| 20260905205651 | 0 | 0 | 0.0 | 0.0 | 0.00 | 0.00 | 0.00 | 100 | |
| 20260905205451 | 0 | 0 | 0.0 | 0.0 | 0.00 | 0.00 | 0.00 | 100 | |
| 20260905205407 | 0 | 0 | 0.0 | 0.0 | 0.00 | 0.00 | 0.00 | 100 | |
| 20260905205007 | 0 | 0 | 0.0 | 0.0 | 0.00 | 0.00 | 0.00 | 100 | |
| 20260905204536 | 0 | 0 | 0.0 | 0.0 | 0.00 | 0.00 | 0.00 | 100 | |
| 20260905204056 | 0 | 0 | 0.0 | 0.0 | 0.00 | 0.00 | 0.00 | 100 | |
| 20260905203607 | 0 | 0 | 0.0 | 0.0 | 0.00 | 0.00 | 0.00 | 100 | |
| 20260905203536 | 0 | 0 | 0.0 | 0.0 | 0.00 | 0.00 | 0.00 | 100 | |
| 20260905203119 | 0 | 0 | 0.0 | 0.0 | 0.00 | 0.00 | 0.00 | 100 | |
| 20260905202704 | 0 | 0 | 0.0 | 0.0 | 0.00 | 0.00 | 0.00 | 100 | |
| 20260905202342 | 0 | 0 | 0.0 | 0.0 | 0.00 | 0.00 | 0.00 | 100 | |
| 20260905201940 | 0 | 0 | 0.0 | 0.0 | 0.00 | 0.00 | 0.00 | 100 | |
| 20260905201535 | 0 | 0 | 0.0 | 0.0 | 0.00 | 0.00 | 0.00 | 100 | |
| 20260905201042 | 0 | 0 | 0.0 | 0.0 | 0.00 | 0.00 | 0.00 | 100 | |
| 20260905200557 | 0 | 0 | 0.0 | 0.0 | 0.00 | 0.00 | 0.00 | 100 | |
| 20260905200111 | 0 | 0 | 0.0 | 0.0 | 0.00 | 0.00 | 0.00 | 100 | |
| 20260905195647 | 0 | 0 | 0.0 | 0.0 | 0.00 | 0.00 | 0.00 | 100 | |
| 20260905195356 | 0 | 0 | 0.0 | 0.0 | 0.00 | 0.00 | 0.00 | 100 | |
| 20260905194905 | 0 | 0 | 0.0 | 0.0 | 0.00 | 0.00 | 0.00 | 100 | |
| 20260905194648 | 0 | 0 | 0.0 | 0.0 | 0.00 | 0.00 | 0.00 | 100 | |
| 20260905194437 | 0 | 0 | 0.0 | 0.0 | 0.00 | 0.00 | 0.00 | 100 | |
| 20260905194034 | 0 | 0 | 0.0 | 0.0 | 0.00 | 0.00 | 0.00 | 100 | |
| 20260905193646 | 0 | 0 | 0.0 | 0.0 | 0.00 | 0.00 | 0.00 | 100 | |
| 20260905193614 | 0 | 0 | 0.0 | 0.0 | 0.00 | 0.00 | 0.00 | 100 | |
| 20260905193149 | 0 | 0 | 0.0 | 0.0 | 0.00 | 0.00 | 0.00 | 100 | |
| 20260905192654 | 0 | 0 | 0.0 | 0.0 | 0.00 | 0.00 | 0.00 | 100 | |
| 20260905192350 | 0 | 0 | 0.0 | 0.0 | 0.00 | 0.00 | 0.00 | 100 | |
| 20260905192306 | 0 | 0 | 0.0 | 0.0 | 0.00 | 0.00 | 0.00 | 100 | |
| 20260905191939 | 0 | 0 | 0.0 | 0.0 | 0.00 | 0.00 | 0.00 | 100 | |
| 20260905191428 | 0 | 0 | 0.0 | 0.0 | 0.00 | 0.00 | 0.00 | 100 | |
| 20260905191029 | 0 | 0 | 0.0 | 0.0 | 0.00 | 0.00 | 0.00 | 100 | |
| 20260905190540 | 0 | 0 | 0.0 | 0.0 | 0.00 | 0.00 | 0.00 | 100 | |
| 20260905190114 | 0 | 0 | 0.0 | 0.0 | 0.00 | 0.00 | 0.00 | 100 | |
| 20260905185649 | 0 | 0 | 0.0 | 0.0 | 0.00 | 0.00 | 0.00 | 100 | |
| 20260905185425 | 0 | 0 | 0.0 | 0.0 | 0.00 | 0.00 | 0.00 | 100 | |
| 20260905184937 | 0 | 0 | 0.0 | 0.0 | 0.00 | 0.00 | 0.00 | 100 | |
| 20260905184517 | 0 | 0 | 0.0 | 0.0 | 0.00 | 0.00 | 0.00 | 100 | |
| 20260905184048 | 0 | 0 | 0.0 | 0.0 | 0.00 | 0.00 | 0.00 | 100 | |
| 20260905183557 | 0 | 0 | 0.0 | 0.0 | 0.00 | 0.00 | 0.00 | 100 | |
| 20260905183147 | 0 | 0 | 0.0 | 0.0 | 0.00 | 0.00 | 0.00 | 100 | |
| 20260905182740 | 0 | 0 | 0.0 | 0.0 | 0.00 | 0.00 | 0.00 | 100 | |
| 20260905182357 | 0 | 0 | 0.0 | 0.0 | 0.00 | 0.00 | 0.00 | 100 | |
| 20260905182035 | 0 | 0 | 0.0 | 0.0 | 0.00 | 0.00 | 0.00 | 100 | |
| 20260905181927 | 0 | 0 | 0.0 | 0.0 | 0.00 | 0.00 | 0.00 | 100 | |
| 20260905181502 | 0 | 0 | 0.0 | 0.0 | 0.00 | 0.00 | 0.00 | 100 | |
| 20260905181103 | 0 | 0 | 0.0 | 0.0 | 0.00 | 0.00 | 0.00 | 100 | |
| 20260905181042 | 0 | 0 | 0.0 | 0.0 | 0.00 | 0.00 | 0.00 | 100 | |
| 20260905180557 | 0 | 0 | 0.0 | 0.0 | 0.00 | 0.00 | 0.00 | 100 | |
| 20260905180155 | 0 | 0 | 0.0 | 0.0 | 0.00 | 0.00 | 0.00 | 100 | |
| 20260905175747 | 0 | 0 | 0.0 | 0.0 | 7.82 | 0.00 | 0.00 | 100 | |
| 20260905175306 | 0 | 0 | 0.0 | 0.0 | 7.82 | 0.00 | 0.00 | 100 | |
| 20260905175228 | 88 | 67 | 5.0 | 8.0 | 7.82 | 0.00 | 0.00 | 5 | 1015.2 |
| 20260905174857 | 88 | 67 | 5.0 | 8.0 | 7.82 | 0.00 | 0.00 | 5 | 1015.2 |
| 20260905174456 | 88 | 67 | 5.0 | 8.0 | 7.82 | 0.00 | 0.00 | 5 | 1015.1 |
| 20260905174343 | 88 | 67 | 5.0 | 8.0 | 7.82 | 0.00 | 0.00 | 5 | 1015.2 |
| 20260905174026 | 0 | 0 | 0.0 | 0.0 | 7.82 | 0.00 | 0.00 | 100 | |
| 20260905173517 | 0 | 0 | 0.0 | 0.0 | 7.82 | 0.00 | 0.00 | 100 | |
| 20260905173108 | 89 | 112 | 3.0 | 6.0 | 7.82 | 0.00 | 0.00 | 5 | 1015.2 |
| 20260905172702 | 89 | 112 | 3.0 | 6.0 | 7.82 | 0.00 | 0.00 | 5 | 1015.2 |
| 20260905172212 | 89 | 112 | 3.0 | 4.0 | 7.82 | 0.00 | 0.00 | 5 | 1015.2 |
| 20260905172112 | 89 | 112 | 3.0 | 4.0 | 7.82 | 0.00 | 0.00 | 5 | 1015.1 |
| 20260905171810 | 90 | 112 | 3.0 | 6.0 | 7.82 | 0.00 | 0.00 | 5 | 1015.2 |
| 20260905171313 | 89 | 90 | 3.0 | 6.0 | 7.82 | 0.00 | 0.00 | 5 | 1015.2 |
| 20260905171311 | 89 | 67 | 2.0 | 3.0 | 7.82 | 0.00 | 0.00 | 5 | 1015.1 |
| 20260905171152 | 89 | 90 | 3.0 | 6.0 | 7.82 | 0.00 | 0.00 | 5 | 1015.2 |
| 20260905170908 | 89 | 90 | 3.0 | 6.0 | 7.82 | 0.00 | 0.00 | 5 | 1015.2 |
| 20260905170438 | 89 | 112 | 3.0 | 4.0 | 7.82 | 0.00 | 0.00 | 5 | 1015.2 |
| 20260905170345 | 89 | 112 | 3.0 | 6.0 | 7.82 | 0.00 | 0.00 | 5 | 1015.2 |
| 20260905170037 | 89 | 90 | 5.0 | 6.0 | 0.00 | 0.00 | 0.00 | 5 | 1015.3 |
| 20260905165607 | 88 | 112 | 3.0 | 6.0 | 0.00 | 0.00 | 0.00 | 5 | 1015.2 |
| 20260905165516 | 89 | 67 | 4.0 | 6.0 | 0.00 | 0.00 | 0.00 | 5 | 1015.1 |
| 20260905165406 | 89 | 67 | 4.0 | 6.0 | 0.00 | 0.00 | 0.00 | 5 | 1015.1 |
| 20260905165151 | 89 | 90 | 5.0 | 8.0 | 0.00 | 0.00 | 0.00 | 5 | 1015.0 |
| 20260905164738 | 89 | 112 | 4.0 | 6.0 | 0.00 | 0.00 | 0.00 | 5 | 1015.1 |
| 20260905164437 | 89 | 90 | 3.0 | 4.0 | 0.00 | 0.00 | 0.00 | 5 | 1015.2 |
| 20260905164251 | 89 | 90 | 3.0 | 6.0 | 0.00 | 0.00 | 0.00 | 5 | 1015.0 |
| 20260905163825 | 0 | 0 | 0.0 | 0.0 | 0.00 | 0.00 | 0.00 | 100 | |
| 20260905163444 | 89 | 90 | 3.0 | 6.0 | 0.00 | 0.00 | 0.00 | 5 | 1015.1 |
| 20260905163345 | 89 | 90 | 3.0 | 6.0 | 0.00 | 0.00 | 0.00 | 5 | 1015.1 |
| 20260905162936 | 89 | 90 | 3.0 | 6.0 | 0.00 | 0.00 | 0.00 | 5 | 1015.1 |
| 20260905162559 | 89 | 90 | 3.0 | 6.0 | 0.00 | 0.00 | 0.00 | 5 | 1015.0 |
| 20260905162523 | 89 | 90 | 3.0 | 6.0 | 0.00 | 0.00 | 0.00 | 5 | 1015.1 |
| 20260905162106 | 89 | 90 | 6.0 | 10.0 | 0.00 | 0.00 | 0.00 | 5 | 1015.0 |
| 20260905161722 | 89 | 90 | 7.0 | 10.0 | 0.00 | 0.00 | 0.00 | 5 | 1015.2 |
| 20260905161648 | 89 | 90 | 7.0 | 10.0 | 0.00 | 0.00 | 0.00 | 5 | 1015.2 |
| 20260905161235 | 0 | 0 | 0.0 | 0.0 | 0.00 | 0.00 | 0.00 | 100 | |
| 20260905160839 | 0 | 0 | 0.0 | 0.0 | 0.00 | 0.00 | 0.00 | 100 | |
| 20260905160748 | 0 | 0 | 0.0 | 0.0 | 0.00 | 0.00 | 0.00 | 100 | |
| 20260905160333 | 0 | 0 | 0.0 | 0.0 | 0.00 | 0.00 | 0.00 | 100 | |
| 20260905155847 | 0 | 0 | 0.0 | 0.0 | 0.00 | 0.00 | 0.00 | 100 | |
| 20260905155457 | 0 | 0 | 0.0 | 0.0 | 0.00 | 0.00 | 0.00 | 100 | |
| 20260905155005 | 0 | 0 | 0.0 | 0.0 | 0.00 | 0.00 | 0.00 | 100 | |
| 20260905154913 | 0 | 0 | 0.0 | 0.0 | 0.00 | 0.00 | 0.00 | 100 | |
| 20260905154547 | 89 | 90 | 8.0 | 11.0 | 0.00 | 0.00 | 0.00 | 6 | 1015.1 |
| 20260905154135 | 89 | 90 | 8.0 | 11.0 | 0.00 | 0.00 | 0.00 | 6 | 1015.0 |
| 20260905153921 | 89 | 90 | 8.0 | 11.0 | 0.00 | 0.00 | 0.00 | 6 | 1015.1 |
| 20260905153642 | 89 | 90 | 8.0 | 11.0 | 0.00 | 0.00 | 0.00 | 6 | 1015.0 |
| 20260905153149 | 0 | 0 | 0.0 | 0.0 | 0.00 | 0.00 | 0.00 | 100 | |
| 20260905152957 | 0 | 0 | 0.0 | 0.0 | 0.00 | 0.00 | 0.00 | 100 | |
| 20260905152659 | 0 | 0 | 0.0 | 0.0 | 0.00 | 0.00 | 0.00 | 100 | |
| 20260905152300 | 88 | 135 | 9.0 | 15.0 | 0.00 | 0.00 | 0.00 | 6 | 1015.1 |
| 20260905152146 | 88 | 135 | 9.0 | 15.0 | 0.00 | 0.00 | 0.00 | 6 | 1015.1 |
| 20260905151823 | 88 | 135 | 9.0 | 15.0 | 0.00 | 0.00 | 0.00 | 6 | 1015.1 |
| 20260905151418 | 88 | 135 | 9.0 | 15.0 | 0.00 | 0.00 | 0.00 | 6 | 1015.1 |
| 20260905151323 | 88 | 135 | 9.0 | 15.0 | 0.00 | 0.00 | 0.00 | 6 | 1015.2 |
| 20260905150939 | 88 | 90 | 10.0 | 13.0 | 0.00 | 0.00 | 0.00 | 6 | 1015.1 |
| 20260905150503 | 88 | 90 | 10.0 | 13.0 | 0.00 | 0.00 | 0.00 | 6 | 1015.2 |
| 20260905150454 | 88 | 90 | 9.0 | 13.0 | 0.00 | 0.00 | 0.00 | 6 | 1015.2 |
| 20260905150039 | 88 | 90 | 9.0 | 13.0 | 0.00 | 0.00 | 0.00 | 6 | 1015.2 |
| 20260905145624 | 88 | 90 | 9.0 | 13.0 | 0.00 | 0.00 | 0.00 | 6 | 1015.3 |
| 20260905145436 | 88 | 90 | 9.0 | 13.0 | 0.00 | 0.00 | 0.00 | 6 | 1015.3 |
| 20260905145332 | 88 | 90 | 9.0 | 13.0 | 0.00 | 0.00 | 0.00 | 6 | 1015.3 |
| 20260905145031 | 88 | 112 | 9.0 | 15.0 | 0.00 | 0.00 | 0.00 | 6 | 1015.3 |
| 20260905144605 | 88 | 112 | 11.0 | 15.0 | 0.00 | 0.00 | 0.00 | 6 | 1015.4 |
| 20260905144437 | 88 | 112 | 11.0 | 15.0 | 0.00 | 0.00 | 0.00 | 6 | 1015.4 |
| 20260905144133 | 88 | 112 | 10.0 | 15.0 | 0.00 | 0.00 | 0.00 | 6 | 1015.4 |
| 20260905143645 | 88 | 112 | 10.0 | 15.0 | 0.00 | 0.00 | 0.00 | 6 | 1015.5 |
| 20260905143610 | 88 | 112 | 10.0 | 15.0 | 0.00 | 0.00 | 0.00 | 6 | 1015.5 |
| 20260905143156 | 88 | 90 | 9.0 | 12.0 | 0.00 | 0.00 | 0.00 | 6 | 1015.4 |
| 20260905142745 | 88 | 90 | 10.0 | 15.0 | 0.00 | 0.00 | 0.00 | 6 | 1015.5 |
| 20260905142311 | 88 | 90 | 10.0 | 17.0 | 0.00 | 0.00 | 0.00 | 6 | 1015.5 |
| 20260905141905 | 89 | 112 | 8.0 | 13.0 | 0.00 | 0.00 | 0.00 | 6 | 1015.5 |
| 20260905141434 | 87 | 112 | 14.0 | 19.0 | 0.00 | 0.00 | 0.00 | 6 | 1015.5 |
| 20260905141005 | 88 | 90 | 15.0 | 17.0 | 0.00 | 0.00 | 0.00 | 6 | 1015.6 |
| 20260905140603 | 88 | 90 | 15.0 | 17.0 | 0.00 | 0.00 | 0.00 | 6 | 1015.6 |
| 20260905140546 | 88 | 90 | 15.0 | 17.0 | 0.00 | 0.00 | 0.00 | 6 | 1015.7 |
| 20260905140120 | 89 | 112 | 10.0 | 15.0 | 0.00 | 0.00 | 0.00 | 6 | 1015.5 |
| 20260905135656 | 89 | 112 | 10.0 | 19.0 | 0.00 | 0.00 | 0.00 | 6 | 1015.6 |
| 20260905135522 | 89 | 112 | 10.0 | 19.0 | 0.00 | 0.00 | 0.00 | 6 | 1015.6 |
| 20260905135026 | 88 | 112 | 12.0 | 17.0 | 0.00 | 0.00 | 0.00 | 6 | 1015.7 |
| 20260905134738 | 89 | 67 | 12.0 | 15.0 | 0.00 | 0.00 | 0.00 | 6 | 1015.6 |
| 20260905134608 | 89 | 67 | 12.0 | 15.0 | 0.00 | 0.00 | 0.00 | 6 | 1015.6 |
| 20260905134124 | 89 | 67 | 9.0 | 13.0 | 0.00 | 0.00 | 0.00 | 6 | 1015.7 |
| 20260905133739 | 88 | 112 | 12.0 | 17.0 | 0.00 | 0.00 | 0.00 | 6 | 1015.8 |
| 20260905133707 | 88 | 112 | 12.0 | 17.0 | 0.00 | 0.00 | 0.00 | 6 | 1015.8 |
| 20260905133242 | 88 | 112 | 11.0 | 17.0 | 0.00 | 0.00 | 0.00 | 6 | 1015.8 |
| 20260905132747 | 88 | 90 | 13.0 | 17.0 | 0.00 | 0.00 | 0.00 | 6 | 1016.0 |
| 20260905132306 | 88 | 90 | 13.0 | 20.0 | 0.00 | 0.00 | 0.00 | 6 | 1016.1 |
| 20260905132259 | 88 | 112 | 10.0 | 15.0 | 0.00 | 0.00 | 0.00 | 6 | 1016.0 |
| 20260905131844 | 88 | 112 | 10.0 | 15.0 | 0.00 | 0.00 | 0.00 | 6 | 1016.0 |
| 20260905131430 | 87 | 112 | 11.0 | 17.0 | 0.00 | 0.00 | 0.00 | 6 | 1016.0 |
| 20260905131000 | 88 | 90 | 10.0 | 15.0 | 0.00 | 0.00 | 0.00 | 6 | 1016.1 |
| 20260905130541 | 87 | 135 | 12.0 | 17.0 | 0.00 | 0.00 | 0.00 | 6 | 1016.1 |
| 20260905130115 | 87 | 112 | 14.0 | 19.0 | 0.00 | 0.00 | 0.00 | 6 | 1016.1 |
| 20260905125650 | 87 | 112 | 13.0 | 19.0 | 0.00 | 0.00 | 0.00 | 6 | 1016.0 |
| 20260905125306 | 87 | 67 | 12.0 | 15.0 | 0.00 | 0.00 | 0.00 | 6 | 1016.2 |
| 20260905125300 | 87 | 90 | 14.0 | 18.0 | 0.00 | 0.00 | 0.00 | 6 | 1016.1 |
| 20260905124839 | 88 | 67 | 9.0 | 13.0 | 0.00 | 0.00 | 0.00 | 6 | 1016.2 |
| 20260905124425 | 88 | 90 | 9.0 | 13.0 | 0.00 | 0.00 | 0.00 | 6 | 1016.1 |
| 20260905123956 | 87 | 90 | 11.0 | 17.0 | 0.00 | 0.00 | 0.00 | 6 | 1016.2 |
| 20260905123553 | 87 | 90 | 10.0 | 13.0 | 0.00 | 0.00 | 0.00 | 7 | 1016.1 |
| 20260905123536 | 87 | 90 | 10.0 | 13.0 | 0.00 | 0.00 | 0.00 | 7 | 1016.3 |
| 20260905123110 | 87 | 90 | 12.0 | 15.0 | 0.00 | 0.00 | 0.00 | 7 | 1016.2 |
| 20260905122646 | 87 | 90 | 10.0 | 15.0 | 0.00 | 0.00 | 0.00 | 7 | 1016.2 |
| 20260905122520 | 87 | 90 | 10.0 | 15.0 | 0.00 | 0.00 | 0.00 | 7 | 1016.2 |
| 20260905122411 | 87 | 90 | 9.0 | 15.0 | 0.00 | 0.00 | 0.00 | 7 | 1016.2 |
| 20260905121952 | 87 | 112 | 9.0 | 15.0 | 0.00 | 0.00 | 0.00 | 7 | 1016.2 |
| 20260905121607 | 87 | 67 | 10.0 | 15.0 | 0.00 | 0.00 | 0.00 | 7 | 1016.3 |
| 20260905121533 | 87 | 67 | 10.0 | 15.0 | 0.00 | 0.00 | 0.00 | 7 | 1016.3 |
| 20260905121049 | 88 | 90 | 8.0 | 13.0 | 0.00 | 0.00 | 0.00 | 6 | 1016.3 |
| 20260905120706 | 88 | 90 | 8.0 | 11.0 | 0.00 | 0.00 | 0.00 | 6 | 1016.3 |
| 20260905120632 | 88 | 90 | 8.0 | 11.0 | 0.00 | 0.00 | 0.00 | 6 | 1016.4 |